Location: Shenandoah County Park
(38.9356°N, 78.4524°W)
Time: 23:49:33
(UTC-04:00)

AO-73 - Visible Passes

Search period start: 28 March 2023 00:00
Search period end: 07 April 2023 00:00
Orbit: 573 x 649 km, 97.7° (Epoch: 28 March)

Date Brightness Start Highest point End Pass type
(mag) Time Alt. Az. Time Alt. Az. Time Alt. Az.
28 Mar ? 04:42:03 10° NNE 04:45:20 53° NE 04:45:20 53° NE visible
29 Mar ? 04:56:34 10° N 05:00:08 62° NNW 05:00:08 62° NNW visible
30 Mar ? 03:37:28 10° ENE 03:37:56 11° ENE 03:37:56 11° ENE visible
30 Mar ? 05:11:10 10° N 05:14:56 49° WNW 05:14:56 49° WNW visible
31 Mar ? 03:50:48 10° NE 03:52:43 16° ENE 03:52:43 16° ENE visible
31 Mar ? 05:25:52 10° N 05:29:35 33° WNW 05:29:42 33° WNW visible
01 Apr ? 04:04:42 10° NE 04:07:29 24° E 04:07:29 24° E visible
01 Apr ? 05:40:42 10° NNW 05:43:58 23° WNW 05:44:28 23° W visible
02 Apr ? 04:18:50 10° NNE 04:22:15 36° E 04:22:15 36° E visible
02 Apr ? 05:55:44 10° NNW 05:58:17 16° WNW 05:59:13 15° W visible
03 Apr ? 04:33:06 10° NNE 04:36:59 55° E 04:36:59 55° E visible
03 Apr ? 06:11:17 10° NW 06:12:35 11° WNW 06:13:53 10° W visible
04 Apr ? 04:47:29 10° NNE 04:51:37 85° ESE 04:51:43 83° SSE visible
05 Apr ? 05:01:57 10° N 05:06:01 63° WNW 05:06:26 59° WSW visible
06 Apr ? 03:42:10 10° ENE 03:44:09 13° E 03:44:09 13° E visible
06 Apr ? 05:16:31 10° N 05:20:23 42° WNW 05:21:08 37° WSW visible
